[[{"header":{"parameterUnit":"m.s-1","parameterCategory":1,"la1":30.2991,"la2":30.254,"lo1":-89.0895,"lo2":-89.0444,"dy":0.0017,"dx":0.0017,"nx":28,"ny":28,"refTime":"2025-08-17T21:00:00:Z","depth":0,"parameterNumber":2,"parameterNumberName":"U-component_of_WINDS"},"data":[0,0,0,0,0,0,0,0,0,0,0,0,0,0,0,0,0,0,0,0,0,0,0,0,0,0,0,0,0,0,0,0,0,0,0,0,0,0,0,0,0,0,0,0,0,0,0,0,0,0,0,0,0,0,0,0,0,0,-2.2171,-2.217,0,-2.212,-2.212,-2.2119,-2.2005,-2.2002,-2.2,-2.1998,-2.1949,-2.195,-2.1951,0,0,0,0,0,0,0,0,0,0,0,0,0,-2.2174,-2.2175,-2.2171,-2.217,-2.217,-2.212,-2.2119,-2.2119,-2.2005,-2.2002,-2.2,-2.1997,-2.1949,-2.195,-2.1951,0,0,0,0,0,0,0,0,0,0,0,0,0,-2.2153,-2.2175,-2.2171,-2.2107,-2.2101,-2.212,-2.2119,-2.2119,-2.2006,-2.2002,-2.1999,-2.1995,-2.1948,-2.195,-2.1951,-2.203,0,0,-2.1955,-2.1956,0,0,0,0,0,0,0,0,-2.2155,-2.2153,-2.2117,-2.2111,-2.2104,-2.2065,-2.2102,-2.2089,-2.2007,-2.2042,-2.1998,-2.1994,-2.1991,-2.1988,-2.1987,-2.2028,-2.2025,-2.1955,-2.1956,-2.1957,-2.1957,0,0,0,0,0,0,0,-2.2156,-2.2155,-2.2151,-2.2117,-2.2109,-2.2082,-2.2075,-2.2099,-2.2037,-2.2039,-2.203,-2.2026,-2.1987,-2.1986,-2.1985,-2.2025,-2.1955,-2.1956,-2.1957,-2.1958,-2.2129,-2.2133,0,0,0,0,0,0,-2.2166,-2.2157,-2.2152,-2.2149,-2.2121,-2.2085,-2.2077,-2.2081,-2.2036,-2.2026,-2.2029,-2.202,-2.1985,-2.1983,-2.1983,-2.2072,-2.1957,-2.1958,-2.1959,-2.2126,-2.213,-2.2134,0,0,0,0,0,0,-2.2167,-2.2167,-2.2155,-2.2151,-2.2147,-2.2089,-2.2094,-2.2082,-2.2081,-2.2029,-2.2017,-2.2039,-2.1982,-2.1981,-2.2019,-2.2069,-2.1958,-2.196,-2.2121,-2.2127,-2.2132,-2.2253,0,0,0,0,0,0,-2.2167,-2.2168,-2.2196,-2.2152,-2.2148,-2.2191,-2.2097,-2.2084,-2.2083,-2.2072,-2.2035,-2.2026,-2.1979,-2.2018,-2.202,-2.2069,-2.1961,-2.2117,-2.2124,-2.2131,-2.2244,-2.2262,-2.2277,0,0,0,0,0,-2.2168,-2.2232,-2.2198,-2.2198,-2.2181,-2.2194,-2.2192,-2.2136,-2.2088,-2.2116,-2.2083,-2.2027,-2.2064,-2.2023,-2.2025,-2.2074,-2.2113,-2.2122,-2.213,-2.2237,-2.2258,-2.2277,0,0,0,0,0,0,-2.2284,-2.2225,-2.2187,-2.2238,-2.2222,-2.2175,-2.2209,-2.216,-2.2158,-2.2148,-2.208,-2.2073,-2.2121,-2.2101,-2.2057,-2.2149,-2.2079,-2.2089,-2.216,-2.218,-2.2196,-2.22,-2.1962,0,0,0,0,0,-2.2316,-2.233,-2.2278,-2.2329,-2.2323,-2.2268,-2.2271,-2.223,-2.221,-2.2203,-2.2172,-2.2157,-2.2165,-2.2171,-2.2176,-2.2241,-2.2232,-2.2277,-2.2293,-2.2307,-2.2316,-2.235,-2.237,-2.2162,-2.2162,-2.2162,0,0,-2.2381,-2.2351,-2.2364,-2.2352,-2.2334,-2.2351,-2.2262,-2.2284,-2.2297,-2.2206,-2.224,-2.2218,-2.2196,-2.2249,-2.2271,-2.2234,-2.2371,-2.2318,-2.2329,-2.233,-2.2361,-2.2381,-2.2398,-2.2168,-2.2167,-2.2166,0,0,-2.2509,-2.2488,-2.2528,-2.2512,-2.2487,-2.245,-2.246,-2.242,-2.2402,-2.2435,-2.2368,-2.2383,-2.2398,-2.2385,-2.2381,-2.2507,-2.2456,-2.2511,-2.2597,-2.2631,-2.2647,-2.2662,-2.2707,-2.2724,-2.252,-2.252,-2.252,0,-2.2594,-2.2616,-2.2555,-2.2581,-2.2579,-2.2498,-2.2539,-2.2527,-2.2505,-2.2506,-2.2465,-2.2483,-2.2463,-2.2512,-2.2543,-2.2542,-2.2552,-2.2514,-2.265,-2.2663,-2.2676,-2.2718,-2.2736,-2.2527,-2.2526,-2.2525,-2.2525,0,-2.2722,-2.2739,-2.2775,-2.2755,-2.2756,-2.279,-2.2736,-2.2745,-2.2704,-2.2673,-2.2709,-2.2682,-2.268,-2.2689,-2.2649,-2.2733,-2.2711,-2.2662,-2.259,-2.2703,-2.2742,-2.2758,-2.2537,-2.2534,-2.2532,-2.253,0,0,-2.2921,-2.2867,-2.2882,-2.2872,-2.2839,-2.2851,-2.2883,-2.288,-2.289,-2.2878,-2.2903,-2.2919,-2.2873,-2.2868,-2.2827,-2.2857,-2.296,-2.2804,-2.2802,-2.2834,-2.3052,-2.3089,-2.3109,-2.2926,-2.2929,-2.2931,-2.3054,0,-2.3041,-2.3089,-2.3037,-2.3097,-2.3112,-2.3037,-2.3064,-2.3048,-2.302,-2.303,-2.2999,-2.3011,-2.2949,-2.2946,-2.2973,-2.2942,-2.3003,-2.2932,-2.295,-2.2952,-2.2957,-2.3129,-2.3169,-2.3285,-2.3069,-2.3071,-2.3073,0,-2.3187,-2.3182,-2.3244,-2.3208,-2.3212,-2.3237,-2.3232,-2.3242,-2.3223,-2.32,-2.3196,-2.3147,-2.3177,-2.3108,-2.3149,-2.3102,-2.3106,-2.3093,-2.3096,-2.3095,-2.3019,-2.3133,-2.3321,-2.3339,-2.3096,-2.3094,-2.3093,0,-2.3326,-2.3335,-2.3373,-2.3367,-2.3326,-2.3346,-2.333,-2.3307,-2.3309,-2.3305,-2.3306,-2.3306,-2.3306,-2.3308,-2.326,-2.3214,-2.3308,-2.3235,-2.3291,-2.3293,-2.3313,-2.3313,-2.3504,-2.3317,-2.3317,-2.3317,-2.3316,0,-2.3466,-2.3507,-2.3435,-2.3458,-2.3503,-2.3442,-2.3488,-2.3465,-2.3446,-2.3465,-2.34,-2.342,-2.3356,-2.3369,-2.3332,-2.3372,-2.3373,-2.3357,-2.3346,-2.3362,-2.3364,-2.3364,-2.3354,-2.3321,-2.332,-2.3319,-2.3319,0,-2.3628,-2.3581,-2.3618,-2.3577,-2.3567,-2.3602,-2.3567,-2.3588,-2.3556,-2.3581,-2.3584,-2.3534,-2.3547,-2.35,-2.3505,-2.348,-2.354,-2.3516,-2.3546,-2.3539,-2.3598,-2.3593,-2.3795,-2.3819,-2.3618,-2.362,-2.3621,0,-2.372,-2.375,-2.3712,-2.3719,-2.3706,-2.372,-2.3722,-2.3665,-2.367,-2.3651,-2.3675,-2.3682,-2.3684,-2.3708,-2.3673,-2.3677,-2.3653,-2.3724,-2.3653,-2.3669,-2.3655,-2.3653,-2.3656,-2.3739,-2.3741,-2.3743,-2.3745,0,-2.3888,-2.3864,-2.3869,-2.3867,-2.3871,-2.3866,-2.3858,-2.3868,-2.3807,-2.3816,-2.3828,-2.383,-2.3835,-2.3843,-2.384,-2.3825,-2.3776,-2.3768,-2.3781,-2.3797,-2.3813,-2.3806,-2.3586,-2.3763,-2.3761,-2.376,-2.3759,-2.3758,-2.4018,-2.4041,-2.4018,-2.4027,-2.4014,-2.4008,-2.4026,-2.3996,-2.4005,-2.4003,-2.397,-2.3989,-2.397,-2.3961,-2.3951,-2.3966,-2.3933,-2.3952,-2.3957,-2.3963,-2.3973,-2.3812,-2.3965,-2.3965,-2.3964,-2.3964,-2.3963,0,-2.4183,-2.4165,-2.4173,-2.4163,-2.417,-2.4122,-2.4111,-2.412,-2.4137,-2.4124,-2.4127,-2.4142,-2.415,-2.4117,-2.4121,-2.4139,-2.4117,-2.4142,-2.414,-2.4138,-2.4002,-2.399,-2.416,-2.416,-2.416,-2.416,-2.416,-2.416,-2.427,-2.4307,-2.428,-2.4312,-2.4293,-2.431,-2.4308,-2.4302,-2.4291,-2.431,-2.4316,-2.4294,-2.4274,-2.4276,-2.4282,-2.4272,-2.4276,-2.431,-2.4292,-2.4166,-2.4147,-2.4129,-2.4117,-2.4311,-2.4311,-2.4427,-2.4428,-2.4428]},{"header":{"parameterUnit":"m.s-1","parameterCategory":1,"la1":30.2991,"la2":30.254,"lo1":-89.0895,"lo2":-89.0444,"dy":0.0017,"dx":0.0017,"nx":28,"ny":28,"refTime":"2025-08-17T21:00:00:Z","depth":0,"parameterNumber":3,"parameterNumberName":"V-component_of_WINDS"},"data":[0,0,0,0,0,0,0,0,0,0,0,0,0,0,0,0,0,0,0,0,0,0,0,0,0,0,0,0,0,0,0,0,0,0,0,0,0,0,0,0,0,0,0,0,0,0,0,0,0,0,0,0,0,0,0,0,0,0,2.8979,2.8979,0,2.9032,2.9033,2.9033,2.9074,2.9074,2.9075,2.9075,2.9125,2.9126,2.9127,0,0,0,0,0,0,0,0,0,0,0,0,0,2.8906,2.8908,2.8979,2.8979,2.898,2.9032,2.9033,2.9033,2.9074,2.9074,2.9075,2.9075,2.9124,2.9126,2.9127,0,0,0,0,0,0,0,0,0,0,0,0,0,2.8946,2.8908,2.8979,2.9007,2.901,2.9032,2.9033,2.9034,2.9074,2.9074,2.9075,2.9075,2.9124,2.9125,2.9127,2.9124,0,0,2.9131,2.9132,0,0,0,0,0,0,0,0,2.8944,2.8949,2.9002,2.9005,2.9008,2.9047,2.9026,2.9064,2.9073,2.9049,2.9075,2.9076,2.9098,2.9102,2.911,2.9127,2.9129,2.9131,2.9132,2.9133,2.9133,0,0,0,0,0,0,0,2.8941,2.8947,2.9,2.9002,2.9006,2.9015,2.9021,2.9033,2.9069,2.9051,2.9054,2.906,2.91,2.9109,2.9112,2.9129,2.9131,2.9133,2.9134,2.9134,2.9144,2.9144,0,0,0,0,0,0,2.8935,2.8944,2.8998,2.9001,2.8977,2.9015,2.9023,2.9034,2.907,2.9076,2.906,2.9062,2.9106,2.911,2.9114,2.9112,2.9133,2.9134,2.9135,2.9145,2.9144,2.9143,0,0,0,0,0,0,2.8933,2.8939,2.8996,2.8974,2.8982,2.9016,2.9028,2.9035,2.9044,2.9076,2.9082,2.9063,2.9107,2.9112,2.9121,2.9114,2.9135,2.9136,2.9145,2.9145,2.9144,2.9108,0,0,0,0,0,0,2.8931,2.8939,2.8939,2.8974,2.8983,2.9004,2.9028,2.9035,2.9047,2.905,2.908,2.9086,2.9107,2.9119,2.9123,2.9116,2.9137,2.9146,2.9145,2.9144,2.911,2.9106,2.9103,0,0,0,0,0,2.8928,2.8927,2.8939,2.8945,2.8985,2.9004,2.9009,2.9035,2.9046,2.9046,2.9066,2.9085,2.9114,2.9119,2.9124,2.9118,2.9147,2.9145,2.9144,2.9112,2.9107,2.9103,0,0,0,0,0,0,2.8889,2.8932,2.8946,2.8956,2.8976,2.9011,2.9012,2.9029,2.9046,2.9048,2.9079,2.9085,2.9091,2.9106,2.9111,2.9117,2.9133,2.9132,2.9107,2.9103,2.9099,2.9095,2.9139,0,0,0,0,0,2.8882,2.8896,2.8931,2.8936,2.8946,2.8977,2.8986,2.9005,2.9026,2.9034,2.9056,2.9075,2.9088,2.9096,2.911,2.9113,2.9119,2.9111,2.9107,2.9104,2.9103,2.9104,2.91,2.9139,2.9139,2.9139,0,0,2.8867,2.8892,2.8898,2.8929,2.8947,2.8958,2.8984,2.8995,2.9003,2.9036,2.9046,2.9062,2.9085,2.9091,2.9094,2.9103,2.9094,2.9102,2.91,2.91,2.9102,2.9098,2.9095,2.9138,2.9138,2.9138,0,0,2.8845,2.8866,2.8872,2.8889,2.8916,2.8936,2.8938,2.8969,2.8982,2.8993,2.9017,2.9026,2.9049,2.9064,2.9075,2.9057,2.9074,2.9061,2.9041,2.9041,2.9038,2.9036,2.9028,2.9025,2.9059,2.9059,2.9059,0,2.8822,2.8842,2.8872,2.8882,2.8894,2.8925,2.893,2.8944,2.8974,2.8981,2.8991,2.9019,2.9037,2.9046,2.9041,2.9049,2.905,2.9057,2.9037,2.9034,2.9032,2.9025,2.9022,2.9058,2.9058,2.9058,2.9058,0,2.8812,2.8825,2.8827,2.8856,2.8868,2.8875,2.8904,2.8912,2.8929,2.8948,2.8957,2.898,2.8998,2.9002,2.9018,2.9012,2.9017,2.9031,2.9048,2.9026,2.902,2.9018,2.9055,2.9056,2.9056,2.9057,0,0,2.8768,2.8812,2.8812,2.8825,2.8856,2.8866,2.8874,2.8893,2.8899,2.8918,2.8924,2.8942,2.8955,2.8967,2.8985,2.8986,2.8968,2.9,2.9001,2.8992,2.8961,2.8949,2.8946,2.898,2.898,2.8979,2.8959,0,2.875,2.8767,2.8793,2.8801,2.8813,2.8841,2.8848,2.8866,2.8884,2.8894,2.8913,2.8925,2.8942,2.8949,2.8951,2.897,2.8962,2.8972,2.8984,2.8984,2.8977,2.8943,2.8931,2.8911,2.8957,2.8956,2.8956,0,2.8732,2.875,2.8759,2.8788,2.8794,2.88,2.8819,2.8829,2.885,2.8863,2.8875,2.8895,2.8903,2.8918,2.8928,2.8934,2.894,2.895,2.895,2.8951,2.8968,2.8942,2.8905,2.8901,2.8953,2.8953,2.8953,0,2.8697,2.8723,2.8732,2.8742,2.8777,2.878,2.8794,2.8816,2.8825,2.8841,2.8847,2.8863,2.8872,2.8883,2.8906,2.8916,2.8912,2.8931,2.8921,2.8921,2.8919,2.8918,2.8881,2.8924,2.8925,2.8925,2.8925,0,2.8674,2.8678,2.8717,2.8722,2.8726,2.8755,2.8759,2.8775,2.8794,2.8802,2.8827,2.8833,2.8864,2.8873,2.889,2.8895,2.8899,2.8907,2.8912,2.8905,2.8903,2.8909,2.891,2.8924,2.8924,2.8924,2.8924,0,2.8635,2.8662,2.8673,2.8705,2.8713,2.8714,2.8741,2.8746,2.8764,2.8773,2.8777,2.8805,2.8817,2.8841,2.886,2.8871,2.8871,2.888,2.8864,2.8867,2.8856,2.8856,2.882,2.8815,2.8862,2.8862,2.8862,0,2.8619,2.8623,2.8655,2.8662,2.8676,2.8687,2.8697,2.8725,2.8734,2.8757,2.8759,2.8773,2.8786,2.8803,2.8824,2.8838,2.8846,2.8832,2.8848,2.884,2.8844,2.8843,2.8843,2.8828,2.8828,2.8827,2.8827,0,2.8585,2.8598,2.8612,2.863,2.8641,2.8656,2.8673,2.8677,2.8708,2.8717,2.873,2.8739,2.8758,2.8771,2.8787,2.88,2.8818,2.8822,2.882,2.8812,2.8802,2.8806,2.8853,2.8822,2.8823,2.8823,2.8823,2.8823,2.8557,2.8561,2.8584,2.8598,2.8613,2.8628,2.8634,2.8653,2.8665,2.8683,2.8698,2.8709,2.8728,2.8753,2.8764,2.8772,2.8781,2.8779,2.8778,2.8777,2.8773,2.8802,2.8775,2.8775,2.8775,2.8776,2.8776,0,2.8524,2.854,2.8553,2.8575,2.8585,2.8603,2.8621,2.8628,2.8638,2.8655,2.8667,2.8681,2.8693,2.8715,2.8729,2.8731,2.8739,2.8733,2.8733,2.8735,2.8765,2.8765,2.8726,2.8726,2.8726,2.8726,2.8726,2.8726,2.8508,2.8515,2.853,2.8545,2.856,2.8572,2.8581,2.8594,2.8607,2.8622,2.8633,2.8647,2.8666,2.8681,2.8692,2.8698,2.8701,2.8693,2.8701,2.8728,2.8733,2.8737,2.8737,2.8693,2.8693,2.867,2.867,2.867]}]]